User: anonymous   Login
Location: Unspecified
(0.0000°N, 0.0000°E)
Time: 19:34:01
(UTC+00:00)
Language:

USA 189 - Orbit

View from above orbital plane
View from above orbital plane
View from above satellite
View from above satellite

Ground track
Ground track

The orbit data is extracted from the following two-line orbital elements,

1 29242U 06024C   19056.69801597 0.00000000  00000-0  00000-0 0    00
2 29242   8.6830  39.2997 0001007 149.2027 210.8152  1.04025052    06
Epoch (UTC): 25 February 2019 16:45:08
Eccentricity: 0.0001007
inclination: 8.6830°
perigee height: 34761 km
apogee height: 34770 km
right ascension of ascending node: 39.2997°
argument of perigee: 149.2027°
revolutions per day: 1.04025052
mean anomaly at epoch: 210.8152°
orbit number at epoch: 0

The dashed part of the orbit path shows where the satellite is in the earth's shadow,  

DLR